Flag for U.S.A. Weather past 2 weeks in Hampton, Virginia, U.S.A.

Now
82 °F

Sunny.


Feels Like: 88 °F
Forecast: 76 / 87 °F
Wind: 9 mph from South

Location: Langley Air Force Base

Current Time: Jul 30, 2015 at 9:19:56 AM

Latest Report: Jul 30, 2015 at 8:58 AM


Visibility: 10 mi

Pressure: 29.98 "Hg

Humidity: 77%

Dew point: 74 °F

Location of HamptonLocation

Historic Weather in Hampton — Graph

°F

Hampton temperature yesterday

Maximum temperature yesterday: 88 °F (at 1:58 PM)
Minimum temperature yesterday: 75 °F (at 6:58 AM)
Average temperature yesterday: 82 °F

Past Weeks' High & Low Weather Summary

 TemperatureHumidityPressure
High93 °F (Jul 20, 4:58 PM)96% (Jul 17, 5:58 AM)30.11 "Hg (Jul 17, 5:58 AM)
Low67 °F (Jul 25, 3:58 AM)39% (Jul 25, 11:58 AM)29.65 "Hg (Jul 15, 7:58 AM)
Average79 °F74%29.95 "Hg
* Reported Jul 15 7:58 AM — Jul 30 7:58 AM, Hampton, Weather by CustomWeather, © 2015

Note: Actual official high and low records may vary slightly from our data, if they occured in-between our weather recording intervals... More about our weather records

Advertising

Hampton weather history for previous 24 hours

 ConditionsComfort  
Time TempWeatherWind HumidityBarometerVisibility
7:58 AM
Thu, Jul 30
80 °FSunny.6 mph82%29.98 "Hg10 mi
6:58 AM74 °FClear.5 mph90%29.98 "Hg10 mi
5:58 AM76 °FClear.3 mph86%29.97 "Hg10 mi
4:58 AM76 °FClear.6 mph85%29.97 "Hg10 mi
3:58 AM76 °FClear.5 mph83%29.98 "Hg10 mi
2:58 AM77 °FClear.6 mph80%29.98 "Hg10 mi
1:58 AM78 °FClear.8 mph81%29.99 "Hg10 mi
12:58 AM79 °FClear.8 mph80%30.01 "Hg10 mi
11:58 PM
Wed, Jul 29
79 °FClear.10 mph80%30.02 "Hg10 mi
10:58 PM80 °FClear.8 mph76%30.02 "Hg10 mi
9:58 PM80 °FClear.9 mph75%30.02 "Hg10 mi
8:58 PM82 °FSunny.12 mph69%30.00 "Hg10 mi
7:58 PM84 °FSunny.7 mph64%29.98 "Hg10 mi
6:58 PM86 °FSunny.12 mph65%29.96 "Hg10 mi
5:58 PM85 °FPassing clouds.10 mph68%29.98 "Hg10 mi
4:58 PM88 °FSunny.13 mph60%30.00 "Hg10 mi
3:58 PM87 °FSunny.10 mph61%30.01 "Hg9 mi
2:58 PM87 °FSunny.12 mph62%30.02 "Hg9 mi
1:58 PM88 °FPartly sunny.9 mph64%30.03 "Hg10 mi
12:58 PM88 °FBroken clouds.5 mph57%30.04 "Hg9 mi
11:58 AM86 °FSunny.5 mph60%30.05 "Hg9 mi
10:58 AM85 °FSunny.7 mph64%30.06 "Hg9 mi
9:58 AM82 °FScattered clouds.7 mph68%30.04 "Hg10 mi
Weather by CustomWeather, © 2015

See weather overviewHow to use our weather pages